Regional Weather Roundup
Issued by NWS

Home | Current Version | Previous Version | Text Only | Print | Product List | Glossary Off
Versions: 1 2 3 4 5 6 7 8 9 10 11 12 13 14 15 16 17 18 19 20 21 22 23 24 25 26 27 28 29 30 31 32 33 34 35 36 37 38 39 40 41 42 43 44 45 46 47 48 49 50

056
ASUS44 KJAN 221310
RWRMS

MISSISSIPPI HOURLY WEATHER ROUNDUP
NATIONAL WEATHER SERVICE JACKSON MS
700 AM CST MON DEC 22 2014

NOTE: "FAIR: INDICATES FEW OR NO CLOUDS BELOW 12,000 FEET WITH NO
SIGNIFICANT WEATHER AND/OR OBSTRUCTIONS TO VISIBILITY.

MSZ001>002-007>008-010>013-018>021-025>028-034>036-221400-
NORTHWEST MISSISSIPPI

CITY           SKY/WX    TMP DP  RH WIND       PRES   REMARKS
CLARKSDALE     CLOUDY    50  50 100 SE10      29.85S
CLEVELAND      CLOUDY    51  51 100 SE9       29.82F
GREENWOOD      CLOUDY    53  50  89 SE9       29.84F
GREENVILLE     CLOUDY    51  49  92 SE9       29.82S FOG
GRENADA        CLOUDY    50  50 100 CALM      29.86S
OLIVE BRANCH   CLOUDY    48  48 100 SE12G21   29.83F FOG
OXFORD         CLOUDY    48  46  93 SE10G21   29.87S FOG
TUNICA         CLOUDY    50  48  93 SE13      29.84F FOG
$$

MSZ003>006-009-014>017-022>024-029>033-037>039-221400-
NORTHEAST MISSISSIPPI

CITY           SKY/WX    TMP DP  RH WIND       PRES   REMARKS
COLUMBUS AFB   CLOUDY    52  50  95 SE9       29.90F
CORINTH        CLOUDY    50  46  87 SE9       29.89R
GOLDN TRIANGLE CLOUDY    52  48  87 SE12      29.89F FOG
STARKVILLE     CLOUDY    50  50 100 SE8       29.88F FOG
TUPELO         CLOUDY    51  48  89 S10       29.89S FOG
$$

MSZ040-058-221400-
CENTRAL MISSISSIPPI

CITY           SKY/WX    TMP DP  RH WIND       PRES   REMARKS
JACKSON INTL   CLOUDY    53  52  96 SE7       29.85F FOG
JACKSON HAWKNS CLOUDY    52  51  97 SE7       29.84S FOG
MERIDIAN KEY   CLOUDY    53  51  93 SE5       29.89S
MERIDIAN NAS   CLOUDY    52  51  97 E8        29.90S FOG
RAYMOND        CLOUDY    54  48  82 SE7       29.84S HAZE
VICKSBURG      CLOUDY    53  51  93 SE8       29.83S FOG
$$

MSZ059>079-221400-
SOUTH MISSISSIPPI

CITY           SKY/WX    TMP DP  RH WIND       PRES   REMARKS
HATTIESBURG    FOG       55  54  96 E5        29.88S VSB 1/4
MCCOMB         FOG       54  53  97 SE8       29.84F VSB 1/4
NATCHEZ        CLOUDY    55  52  88 S6        29.83S
PINE BELT      CLOUDY    54  52  94 SE6       29.88S VSB 1/2
$$

MSZ080>082-221400-
COASTAL MISSISSIPPI

CITY           SKY/WX    TMP DP  RH WIND       PRES   REMARKS
BAY ST LOUIS   LGT RAIN  59  55  88 E6        29.87  FOG
BILOXI         LGT RAIN  60  60 100 E8        29.87R FOG
PASCAGOULA     LGT RAIN  58  58 100 E7        29.87F FOG
GULFPORT       RAIN      60  59  96 SE10      29.85F FOG
$$



USA.gov is the U.S. government's official web portal to all federal, state and local government web resources and services.